x

Weybourne (03488) Weather Station

8:00 - Mon 8th Feb 2016 All times are GMT.

  • Wind
    32mph, 48mph gusts
  • Luft Temp 45°f
  • Sea Pressure 984mb
  • Weybourne
  • Weybourne

More Historic Weather Station data

Upgrade to MSW Pro to gain access to the past 30 days of data for over 8000 Wavebouys and Weather Stations around the globe.

Join Pro

Comparision Forecast

View Surf forecast
   
Mo 02/08 8:00 32 48 mph 984mb 45f
7:00 29 51 mph 983mb 45f
6:00 31 47 mph 982mb 45f
4:00 29 47 mph 979mb 47f
3:00 33 47 mph 978mb 48f
2:00 32 47 mph 977mb 47f
1:00 30 55 mph 976mb 45f
12:00 38 56 mph 976mb 47f
11:00 38 54 mph 977mb 47f
10:00 34 52 mph 977mb 46f
9:00 30 47 mph 978mb 44f
8:00 31 45 mph 978mb 43f
7:00 29 39 mph 978mb 43f
6:00 26 45 mph 978mb 43f
4:00 23 37 mph 978mb 45f
3:00 25 47 mph 978mb 45f
2:00 25 38 mph 979mb 47f
1:00 25 36 mph 979mb 47f
So 02/07 11:00 30 48 mph 981mb 46f
10:00 31 45 mph 983mb 44f
9:00 26 43 mph 985mb 43f
8:00 26 40 mph 987mb 44f
7:00 21 37 mph 989mb 46f
6:00 19 30 mph 990mb 46f
4:00 17 46 mph 991mb 44f
3:00 24 41 mph 991mb 47f
2:00 28 43 mph 991mb 47f
1:00 25 43 mph 991mb 45f
12:00 23 40 mph 990mb 45f
11:00 24 44 mph 990mb 44f
10:00 25 37 mph 990mb 44f
9:00 21 30 mph 990mb 42f
7:00 17 30 mph 989mb 41f
6:00 19 29 mph 988mb 41f
5:00 17
mph
988mb 41f
4:00 18 29 mph 988mb 42f
3:00 18
mph
987mb 42f
2:00 11
mph
986mb 43f
1:00 23 39 mph 986mb 43f
Sa 02/06 11:00 25 44 mph 985mb 50f
10:00 26 43 mph 985mb 50f
9:00 26 44 mph 986mb 51f
8:00 26 39 mph 987mb 51f
6:00 24 39 mph 989mb 53f
5:00 25 43 mph 990mb 53f
4:00 22 39 mph 991mb 53f
2:00 22 40 mph 994mb 50f
1:00 25 41 mph 995mb 50f
11:00 22 37 mph 998mb 50f
10:00 17 29 mph 999mb 49f
9:00 16 29 mph 1001mb 49f
7:00 19 29 mph 1002mb 49f
6:00 16
mph
1003mb 48f
5:00 16
mph
1003mb 48f
4:00 13
mph
1004mb 49f
3:00 16 31 mph 1005mb 49f
1:00 21 40 mph 1005mb 49f
Fr 02/05 11:00 21 32 mph 1006mb 49f
9:00 19 36 mph 1008mb 49f
8:00 17 33 mph 1009mb 50f
7:00 17 29 mph 1010mb 50f
6:00 17 34 mph 1011mb 51f
5:00 21 31 mph 1011mb 51f
4:00 19 30 mph 1012mb 51f
3:00 18 33 mph 1013mb 52f
1:00 19 33 mph 1015mb 51f
12:00 22 31 mph 1016mb 51f
11:00 18
mph
1017mb 50f
9:00 18 29 mph 1017mb 48f
8:00 16
mph
1018mb 47f
7:00 19
mph
1018mb 48f
6:00 21 31 mph 1018mb 47f
4:00 18
mph
1019mb 48f
3:00 16
mph
1020mb 48f
2:00 17
mph
1021mb 48f
1:00 15
mph
1021mb 48f
Do 02/04 11:00 13
mph
1023mb 48f